| time (UTC) | temp F | wind direction | speed MPH | gust MPH | rain 1hr in | rain 24hr in | rain mn in | humidity % | barometer mb |
| 20260502170500 | 48 | 305 | 7.0 | 13.0 | 0.00 | 0.00 | 0.00 | 51 | 1019.4 |
| 20260502164002 | 0 | 324 | 5.0 | 12.0 | 0.00 | 0.00 | 0.00 | 1019.5 | |
| 20260502163501 | 0 | 340 | 6.0 | 12.0 | 0.00 | 0.00 | 0.00 | 1019.5 | |
| 20260502163002 | 0 | 337 | 4.0 | 8.0 | 0.00 | 0.00 | 0.00 | 1019.6 | |
| 20260502162501 | 0 | 339 | 4.0 | 8.0 | 0.00 | 0.00 | 0.00 | 1019.6 | |
| 20260502162001 | 45 | 328 | 3.0 | 9.0 | 0.00 | 0.00 | 0.00 | 54 | 1019.7 |
| 20260502161501 | 0 | 41 | 5.0 | 9.0 | 0.00 | 0.00 | 0.00 | 1019.7 | |
| 20260502161002 | 0 | 297 | 4.0 | 9.0 | 0.00 | 0.00 | 0.00 | 1019.7 | |
| 20260502160501 | 0 | 280 | 3.0 | 9.0 | 0.00 | 0.00 | 0.00 | 1019.8 | |
| 20260502152002 | 46 | 29 | 5.0 | 10.0 | 0.00 | 0.00 | 0.00 | 58 | 1019.7 |
| 20260502151501 | 45 | 30 | 4.0 | 13.0 | 0.00 | 0.00 | 0.00 | 1019.7 | |
| 20260502151001 | 45 | 342 | 3.0 | 11.0 | 0.00 | 0.00 | 0.00 | 58 | 1019.7 |
| 20260502150502 | 45 | 345 | 6.0 | 11.0 | 0.00 | 0.00 | 0.00 | 57 | 1019.7 |
| 20260502130500 | 40 | 30 | 5.0 | 9.0 | 0.00 | 0.00 | 0.00 | 65 | 1019.2 |
| 20260502123500 | 39 | 70 | 4.0 | 7.0 | 0.00 | 0.00 | 0.00 | 68 | 1019.1 |
| 20260502123001 | 39 | 19 | 4.0 | 7.0 | 0.00 | 0.00 | 0.00 | 68 | 1019.2 |
| 20260502122459 | 39 | 23 | 3.0 | 6.0 | 0.00 | 0.00 | 0.00 | 67 | 1019.1 |
| 20260502122000 | 38 | 8 | 2.0 | 4.0 | 0.00 | 0.00 | 0.00 | 71 | 1019.1 |
| 20260502121500 | 38 | 4 | 2.0 | 4.0 | 0.00 | 0.00 | 0.00 | 70 | 1019.1 |
| 20260502120500 | 37 | 25 | 1.0 | 4.0 | 0.00 | 0.00 | 0.00 | 74 | 1019.0 |
| 20260502115501 | 0 | 351 | 1.0 | 4.0 | 0.00 | 0.01 | 0.00 | 75 | 1018.9 |
| 20260502115002 | 36 | 30 | 0.0 | 2.0 | 0.00 | 0.01 | 0.00 | 78 | 1018.8 |
| 20260502114500 | 35 | 349 | 0.0 | 1.0 | 0.00 | 0.01 | 0.00 | 80 | 1018.7 |
| 20260502113500 | 33 | 4 | 0.0 | 0.0 | 0.00 | 0.01 | 0.00 | 85 | 1018.8 |
| 20260502113000 | 32 | 4 | 0.0 | 0.0 | 0.00 | 0.01 | 0.00 | 87 | 1018.7 |
| 20260502112500 | 32 | 4 | 0.0 | 0.0 | 0.00 | 0.01 | 0.00 | 87 | 1018.7 |
| 20260502112003 | 32 | 4 | 0.0 | 0.0 | 0.00 | 0.01 | 0.00 | 88 | 1018.8 |
| 20260502111000 | 32 | 4 | 0.0 | 0.0 | 0.00 | 0.01 | 0.00 | 87 | 1018.8 |
| 20260502110501 | 32 | 4 | 0.0 | 0.0 | 0.00 | 0.01 | 0.00 | 86 | 1018.8 |
| 20260502110005 | 32 | 4 | 0.0 | 0.0 | 0.00 | 0.01 | 0.00 | 85 | 1018.8 |
| 20260502105000 | 32 | 4 | 0.0 | 0.0 | 0.00 | 0.02 | 0.00 | 81 | 1018.8 |
| 20260502104500 | 33 | 4 | 0.0 | 0.0 | 0.00 | 0.02 | 0.00 | 81 | 1018.7 |
| 20260502104002 | 33 | 4 | 0.0 | 0.0 | 0.00 | 0.02 | 0.00 | 1018.7 | |
| 20260502103459 | 33 | 4 | 0.0 | 0.0 | 0.00 | 0.02 | 0.00 | 82 | 1018.6 |
| 20260502102959 | 34 | 4 | 0.0 | 0.0 | 0.00 | 0.02 | 0.00 | 81 | 1018.6 |
| 20260502102001 | 34 | 4 | 0.0 | 0.0 | 0.00 | 0.02 | 0.00 | 80 | 1018.5 |
| 20260502101500 | 34 | 4 | 0.0 | 0.0 | 0.00 | 0.02 | 0.00 | 80 | 1018.5 |
| 20260502100959 | 34 | 4 | 0.0 | 0.0 | 0.00 | 0.02 | 0.00 | 79 | 1018.5 |
| 20260502100459 | 35 | 4 | 0.0 | 0.0 | 0.00 | 0.02 | 0.00 | 78 | 1018.5 |
| 20260502091502 | 37 | 54 | 1.0 | 3.0 | 0.00 | 0.05 | 0.00 | 71 | 1018.5 |
| 20260502091000 | 37 | 34 | 0.0 | 3.0 | 0.00 | 0.05 | 0.00 | 71 | 1018.5 |
| 20260502090501 | 38 | 30 | 0.0 | 5.0 | 0.00 | 0.05 | 0.00 | 71 | 1018.5 |
| 20260502071459 | 38 | 19 | 0.0 | 0.0 | 0.00 | 0.13 | 0.00 | 80 | 1018.3 |
| 20260502070459 | 38 | 19 | 0.0 | 0.0 | 0.00 | 0.13 | 0.00 | 80 | 1018.4 |
| 20260502070004 | 39 | 19 | 0.0 | 0.0 | 0.00 | 0.13 | 0.00 | 79 | 1018.4 |
| 20260502065501 | 39 | 19 | 0.0 | 1.0 | 0.00 | 0.14 | 0.00 | 79 | 1018.3 |
| 20260502064000 | 39 | 21 | 1.0 | 3.0 | 0.00 | 0.14 | 0.00 | 78 | 1018.5 |
| 20260502063501 | 40 | 28 | 2.0 | 3.0 | 0.00 | 0.14 | 0.00 | 78 | 1018.4 |
| 20260502062459 | 40 | 30 | 1.0 | 3.0 | 0.00 | 0.14 | 0.00 | 76 | 1018.6 |
| 20260502062001 | 40 | 45 | 1.0 | 3.0 | 0.00 | 0.14 | 0.00 | 76 | 1018.6 |
| 20260502061459 | 40 | 340 | 2.0 | 4.0 | 0.00 | 0.14 | 0.00 | 76 | 1018.6 |
| 20260502061001 | 40 | 18 | 2.0 | 4.0 | 0.00 | 0.14 | 0.00 | 76 | 1018.6 |
| 20260502060459 | 40 | 32 | 2.0 | 6.0 | 0.00 | 0.14 | 0.00 | 75 | 1018.6 |
| 20260502060002 | 40 | 346 | 2.0 | 5.0 | 0.00 | 0.14 | 0.00 | 75 | 1018.7 |
| 20260502055501 | 40 | 49 | 2.0 | 5.0 | 0.00 | 0.14 | 0.00 | 75 | 1018.7 |
| 20260502055000 | 41 | 43 | 3.0 | 6.0 | 0.00 | 0.14 | 0.00 | 74 | 1018.6 |
| 20260502054459 | 41 | 38 | 2.0 | 6.0 | 0.00 | 0.14 | 0.00 | 74 | 1018.6 |
| 20260502054002 | 41 | 37 | 2.0 | 5.0 | 0.00 | 0.14 | 0.00 | 75 | 1018.6 |
| 20260502053000 | 41 | 34 | 3.0 | 5.0 | 0.00 | 0.14 | 0.00 | 74 | 1018.6 |
| 20260502052459 | 41 | 34 | 2.0 | 5.0 | 0.00 | 0.14 | 0.00 | 74 | 1018.7 |
| 20260502052003 | 41 | 26 | 1.0 | 3.0 | 0.00 | 0.14 | 0.00 | 74 | 1018.7 |
| 20260502051459 | 41 | 43 | 1.0 | 3.0 | 0.00 | 0.14 | 0.00 | 74 | 1018.7 |
| 20260502050459 | 41 | 51 | 2.0 | 3.0 | 0.00 | 0.14 | 0.00 | 74 | 1018.5 |
| 20260502050004 | 41 | 32 | 1.0 | 7.0 | 0.00 | 0.14 | 0.00 | 72 | 1018.6 |
| 20260502044503 | 42 | 53 | 2.0 | 5.0 | 0.00 | 0.14 | 0.00 | 73 | 1018.7 |
| 20260502044002 | 42 | 38 | 3.0 | 5.0 | 0.00 | 0.14 | 0.00 | 72 | 1018.6 |
| 20260502043001 | 42 | 39 | 3.0 | 5.0 | 0.00 | 0.14 | 0.00 | 71 | 1018.5 |
| 20260502042002 | 42 | 62 | 2.0 | 4.0 | 0.00 | 0.14 | 0.00 | 74 | 1018.7 |
| 20260502041501 | 42 | 48 | 2.0 | 4.0 | 0.00 | 0.14 | 0.00 | 74 | 1018.7 |
| 20260502041001 | 42 | 39 | 2.0 | 3.0 | 0.00 | 0.14 | 0.00 | 73 | 1018.7 |
| 20260502040503 | 42 | 41 | 1.0 | 4.0 | 0.00 | 0.14 | 0.00 | 73 | 1018.7 |
| 20260502040007 | 43 | 34 | 2.0 | 4.0 | 0.00 | 0.14 | 0.00 | 74 | 1018.7 |
| 20260502035502 | 43 | 27 | 1.0 | 4.0 | 0.00 | 0.14 | 0.14 | 76 | 1018.6 |
| 20260502035003 | 43 | 26 | 1.0 | 3.0 | 0.00 | 0.14 | 0.14 | 76 | 1018.7 |
| 20260502034501 | 43 | 33 | 1.0 | 2.0 | 0.00 | 0.14 | 0.14 | 74 | 1018.8 |
| 20260502034003 | 43 | 46 | 0.0 | 3.0 | 0.00 | 0.14 | 0.14 | 73 | 1018.8 |
| 20260502033502 | 43 | 46 | 1.0 | 4.0 | 0.00 | 0.14 | 0.14 | 71 | 1018.8 |
| 20260502033003 | 43 | 41 | 2.0 | 4.0 | 0.00 | 0.14 | 0.14 | 71 | 1018.8 |
| 20260502032001 | 43 | 56 | 1.0 | 3.0 | 0.00 | 0.14 | 0.14 | 72 | 1018.7 |
| 20260502031501 | 43 | 38 | 0.0 | 2.0 | 0.00 | 0.14 | 0.14 | 73 | 1018.7 |
| 20260502031003 | 43 | 38 | 0.0 | 2.0 | 0.00 | 0.14 | 0.14 | 73 | 1018.6 |
| 20260502030502 | 42 | 38 | 0.0 | 2.0 | 0.00 | 0.14 | 0.14 | 73 | 1018.6 |
| 20260502030008 | 42 | 38 | 0.0 | 1.0 | 0.00 | 0.14 | 0.14 | 73 | 1018.5 |
| 20260502025502 | 42 | 38 | 0.0 | 2.0 | 0.00 | 0.14 | 0.14 | 73 | 1018.5 |
| 20260502025003 | 42 | 38 | 1.0 | 2.0 | 0.00 | 0.14 | 0.14 | 72 | 1018.4 |
| 20260502024002 | 42 | 38 | 0.0 | 1.0 | 0.00 | 0.14 | 0.14 | 72 | 1018.3 |
| 20260502023501 | 42 | 38 | 0.0 | 1.0 | 0.00 | 0.14 | 0.14 | 73 | 1018.2 |
| 20260502023003 | 42 | 38 | 0.0 | 1.0 | 0.00 | 0.14 | 0.14 | 73 | 1018.2 |
| 20260502022502 | 43 | 38 | 0.0 | 2.0 | 0.00 | 0.14 | 0.14 | 73 | 1018.1 |
| 20260502022003 | 42 | 38 | 1.0 | 1.0 | 0.00 | 0.14 | 0.14 | 73 | 1018.1 |
| 20260502021502 | 42 | 22 | 0.0 | 1.0 | 0.00 | 0.14 | 0.14 | 73 | 1018.0 |
| 20260502021002 | 43 | 22 | 0.0 | 1.0 | 0.00 | 0.14 | 0.14 | 72 | 1018.0 |
| 20260502015502 | 43 | 23 | 1.0 | 3.0 | 0.00 | 0.14 | 0.14 | 70 | 1017.6 |
| 20260502015001 | 43 | 29 | 0.0 | 2.0 | 0.00 | 0.14 | 0.14 | 69 | 1017.5 |
| 20260502014004 | 44 | 28 | 0.0 | 2.0 | 0.00 | 0.14 | 0.14 | 69 | 1017.4 |
| 20260502013001 | 44 | 44 | 1.0 | 3.0 | 0.00 | 0.14 | 0.14 | 69 | 1017.2 |
| 20260502012002 | 44 | 30 | 2.0 | 3.0 | 0.00 | 0.14 | 0.14 | 67 | 1017.1 |
| 20260502011503 | 45 | 18 | 2.0 | 4.0 | 0.00 | 0.14 | 0.14 | 66 | 1017.0 |
| 20260502011002 | 45 | 4 | 2.0 | 4.0 | 0.00 | 0.14 | 0.14 | 64 | 1016.9 |
| 20260502010501 | 45 | 43 | 2.0 | 5.0 | 0.00 | 0.14 | 0.14 | 64 | 1016.8 |
| 20260502010005 | 45 | 16 | 2.0 | 5.0 | 0.00 | 0.14 | 0.14 | 64 | 1016.6 |
| 20260502005503 | 45 | 15 | 3.0 | 7.0 | 0.00 | 0.14 | 0.14 | 63 | 1016.6 |
| 20260502004501 | 46 | 27 | 3.0 | 6.0 | 0.00 | 0.14 | 0.14 | 65 | 1016.4 |
| 20260502004002 | 46 | 15 | 4.0 | 7.0 | 0.00 | 0.14 | 0.14 | 65 | 1016.4 |
| 20260502003502 | 46 | 23 | 5.0 | 8.0 | 0.00 | 0.14 | 0.14 | 64 | 1016.3 |
| 20260502003001 | 47 | 41 | 4.0 | 10.0 | 0.00 | 0.14 | 0.14 | 63 | 1016.3 |
| 20260502002003 | 48 | 23 | 6.0 | 10.0 | 0.00 | 0.14 | 0.14 | 60 | 1016.3 |
| 20260502001502 | 48 | 340 | 5.0 | 10.0 | 0.00 | 0.14 | 0.14 | 60 | 1016.2 |
| 20260502001002 | 49 | 11 | 4.0 | 10.0 | 0.00 | 0.14 | 0.14 | 59 | 1016.3 |
| 20260502000501 | 49 | 336 | 5.0 | 10.0 | 0.00 | 0.14 | 0.14 | 58 | 1016.4 |
| 20260502000005 | 49 | 14 | 5.0 | 10.0 | 0.00 | 0.14 | 0.14 | 59 | 1016.3 |
| 20260501235503 | 49 | 25 | 5.0 | 9.0 | 0.00 | 0.14 | 0.14 | 57 | 1016.2 |
| 20260501234502 | 50 | 342 | 5.0 | 8.0 | 0.00 | 0.14 | 0.14 | 56 | 1016.1 |
| 20260501234001 | 50 | 45 | 3.0 | 12.0 | 0.00 | 0.14 | 0.14 | 60 | 1016.2 |
| 20260501233001 | 49 | 321 | 4.0 | 8.0 | 0.00 | 0.14 | 0.14 | 60 | 1016.2 |
| 20260501232501 | 50 | 357 | 3.0 | 8.0 | 0.00 | 0.14 | 0.14 | 59 | 1016.2 |
| 20260501232003 | 50 | 333 | 4.0 | 8.0 | 0.00 | 0.14 | 0.14 | 57 | 1016.2 |
| 20260501231004 | 50 | 311 | 4.0 | 9.0 | 0.00 | 0.14 | 0.14 | 56 | 1016.1 |
| 20260501230501 | 51 | 15 | 4.0 | 7.0 | 0.00 | 0.14 | 0.14 | 56 | 1016.2 |
| 20260501225002 | 51 | 300 | 4.0 | 9.0 | 0.00 | 0.14 | 0.14 | 56 | 1016.3 |
| 20260501224502 | 51 | 319 | 5.0 | 10.0 | 0.00 | 0.14 | 0.14 | 58 | 1016.3 |
| 20260501224002 | 50 | 305 | 6.0 | 11.0 | 0.00 | 0.14 | 0.14 | 58 | 1016.3 |
| 20260501223504 | 50 | 296 | 6.0 | 10.0 | 0.00 | 0.14 | 0.14 | 60 | 1016.4 |
| 20260501223003 | 49 | 304 | 3.0 | 7.0 | 0.00 | 0.14 | 0.14 | 59 | 1016.3 |
| 20260501222501 | 49 | 8 | 5.0 | 11.0 | 0.00 | 0.14 | 0.14 | 58 | 1016.4 |
| 20260501222001 | 49 | 328 | 6.0 | 12.0 | 0.00 | 0.14 | 0.14 | 62 | 1016.5 |
| 20260501221501 | 49 | 300 | 5.0 | 12.0 | 0.00 | 0.14 | 0.14 | 63 | 1016.5 |
| 20260501221003 | 49 | 28 | 4.0 | 10.0 | 0.00 | 0.14 | 0.14 | 65 | 1016.5 |
| 20260501220502 | 49 | 342 | 6.0 | 10.0 | 0.00 | 0.14 | 0.14 | 64 | 1016.5 |
| 20260501220005 | 50 | 345 | 3.0 | 9.0 | 0.00 | 0.14 | 0.14 | 66 | 1016.4 |
| 20260501215502 | 50 | 334 | 4.0 | 11.0 | 0.00 | 0.14 | 0.14 | 64 | 1016.4 |
| 20260501215002 | 50 | 311 | 5.0 | 11.0 | 0.00 | 0.14 | 0.14 | 65 | 1016.4 |
| 20260501214501 | 49 | 359 | 5.0 | 10.0 | 0.00 | 0.14 | 0.14 | 65 | 1016.4 |
| 20260501212502 | 50 | 311 | 5.0 | 8.0 | 0.00 | 0.14 | 0.14 | 62 | 1016.3 |
| 20260501211002 | 50 | 328 | 4.0 | 9.0 | 0.00 | 0.14 | 0.14 | 65 | 1016.2 |
| 20260501210502 | 49 | 312 | 4.0 | 9.0 | 0.00 | 0.14 | 0.14 | 67 | 1016.1 |
| 20260501210007 | 49 | 314 | 4.0 | 7.0 | 0.00 | 0.14 | 0.14 | 62 | 1016.1 |
| 20260501205502 | 50 | 19 | 4.0 | 9.0 | 0.00 | 0.14 | 0.14 | 61 | 1016.1 |
| 20260501205003 | 50 | 13 | 5.0 | 9.0 | 0.00 | 0.14 | 0.14 | 58 | 1016.1 |
| 20260501204502 | 50 | 338 | 6.0 | 9.0 | 0.00 | 0.14 | 0.14 | 58 | 1016.1 |
| 20260501203002 | 51 | 335 | 5.0 | 10.0 | 0.00 | 0.14 | 0.14 | 57 | 1016.1 |
| 20260501201501 | 51 | 292 | 8.0 | 12.0 | 0.00 | 0.14 | 0.14 | 58 | 1016.2 |
| 20260501201001 | 51 | 6 | 7.0 | 12.0 | 0.00 | 0.14 | 0.14 | 57 | 1016.3 |
| 20260501200502 | 51 | 295 | 6.0 | 14.0 | 0.00 | 0.14 | 0.14 | 55 | 1016.3 |
| 20260501200005 | 51 | 307 | 7.0 | 14.0 | 0.00 | 0.14 | 0.14 | 55 | 1016.3 |
| 20260501195500 | 51 | 271 | 6.0 | 9.0 | 0.00 | 0.14 | 0.14 | 58 | 1016.3 |
| 20260501195001 | 50 | 312 | 4.0 | 9.0 | 0.00 | 0.14 | 0.14 | 60 | 1016.3 |
| 20260501194500 | 50 | 286 | 5.0 | 9.0 | 0.00 | 0.14 | 0.14 | 58 | 1016.2 |
| 20260501194001 | 50 | 314 | 4.0 | 10.0 | 0.00 | 0.14 | 0.14 | 61 | 1016.3 |
| 20260501193500 | 49 | 285 | 7.0 | 12.0 | 0.00 | 0.14 | 0.14 | 58 | 1016.4 |
| 20260501192502 | 50 | 302 | 6.0 | 10.0 | 0.00 | 0.14 | 0.14 | 61 | 1016.3 |
| 20260501192000 | 50 | 303 | 4.0 | 10.0 | 0.00 | 0.14 | 0.14 | 62 | 1016.3 |
| 20260501191500 | 50 | 296 | 5.0 | 11.0 | 0.00 | 0.14 | 0.14 | 61 | 1016.2 |
| 20260501191002 | 49 | 290 | 6.0 | 11.0 | 0.00 | 0.14 | 0.14 | 59 | 1016.2 |
| 20260501190501 | 50 | 279 | 6.0 | 10.0 | 0.00 | 0.14 | 0.14 | 62 | 1016.1 |
| 20260501190004 | 49 | 315 | 3.0 | 7.0 | 0.00 | 0.14 | 0.14 | 63 | 1016.2 |
| 20260501185500 | 49 | 324 | 4.0 | 11.0 | 0.00 | 0.14 | 0.14 | 62 | 1016.2 |
| 20260501185001 | 49 | 315 | 6.0 | 11.0 | 0.00 | 0.14 | 0.14 | 62 | 1016.1 |
| 20260501184501 | 49 | 304 | 8.0 | 11.0 | 0.00 | 0.14 | 0.14 | 61 | 1016.1 |
| 20260501184001 | 50 | 321 | 6.0 | 12.0 | 0.00 | 0.14 | 0.14 | 61 | 1016.0 |
| 20260501183500 | 50 | 288 | 6.0 | 12.0 | 0.00 | 0.14 | 0.14 | 62 | 1016.0 |
| 20260501183001 | 50 | 334 | 3.0 | 10.0 | 0.00 | 0.14 | 0.14 | 61 | 1016.0 |
| 20260501182501 | 50 | 306 | 4.0 | 9.0 | 0.00 | 0.14 | 0.14 | 60 | 1016.0 |
| 20260501181500 | 50 | 17 | 3.0 | 9.0 | 0.00 | 0.14 | 0.14 | 65 | 1015.9 |
| 20260501181000 | 50 | 328 | 5.0 | 12.0 | 0.00 | 0.14 | 0.14 | 61 | 1016.0 |
| 20260501180502 | 50 | 28 | 5.0 | 12.0 | 0.00 | 0.14 | 0.14 | 66 | 1015.8 |